Location: Detroit
(42.3310°N, 83.0460°W)
Time: 09:01:32
(UTC-04:00)

Explorer 11/Cluster Stage 4 - Pass Details

Date: 10 February 2023
Orbit: 466 x 1241 km, 28.8° (Epoch: 02 April)

Event Time Altitude Azimuth Distance (km) Brightness Sun altitude
Exits shadow 05:09:08 26° 195° (SSW) 2,009 8.4 -27.5°
Maximum altitude 05:10:05 27° 183° (S) 2,003 8.5 -27.3°
Drops below altitude 10° 05:16:24 10° 130° (SE) 3,140 10.2 -26.2°
Sets 05:19:53 0° 119° (ESE) 4,151 11.2 -25.5°
